When you browse on this site, cookies collect data to enhance your experience and personalize the content and advertising you see.
Visit our Privacy Policy to learn more. By continuing to use the site, you agree to this use of cookies and data.
  • en France
  • Liste des pays
  • À 7 jours
  • Température de l'eau
  • Carte météo
  • Widgets météo
  • user-avatar
    Se connecter

    Météo par heure à Zhlobin

    Ce jour, 23 Septembre, Lundi

    Heure Température Précipitation Vent Pression Humidité
    00:00 +5°C° 0 mm 2 m/s 750 mmHg 88%
    01:00 +5°C° 0 mm 2 m/s 750 mmHg 90%
    02:00 +5°C° 0 mm 2 m/s 751 mmHg 91%
    03:00 +4°C° 0 mm 2 m/s 751 mmHg 92%
    04:00 +3°C° 0 mm 2 m/s 751 mmHg 93%
    05:00 +2°C° 0 mm 2 m/s 752 mmHg 94%
    06:00 +3°C° 0 mm 2 m/s 752 mmHg 90%
    07:00 +4°C° 0 mm 2 m/s 753 mmHg 86%
    08:00 +5°C° 0 mm 2 m/s 753 mmHg 81%
    09:00 +5°C° 0 mm 3 m/s 753 mmHg 73%
    10:00 +8°C° 0 mm 3 m/s 754 mmHg 65%
    11:00 +9°C° 0 mm 3 m/s 754 mmHg 57%
    12:00 +10°C° 0 mm 3 m/s 754 mmHg 52%
    13:00 +10°C° 0 mm 2 m/s 753 mmHg 48%
    14:00 +12°C° 0 mm 2 m/s 753 mmHg 44%
    15:00 +10°C° 0 mm 2 m/s 753 mmHg 47%
    16:00 +9°C° 0 mm 2 m/s 753 mmHg 51%
    17:00 +10°C° 0 mm 1 m/s 753 mmHg 55%
    18:00 +8°C° 0 mm 1 m/s 753 mmHg 59%
    19:00 +7°C° 0 mm 1 m/s 753 mmHg 63%
    20:00 +5°C° 0 mm 1 m/s 754 mmHg 67%
    21:00 +5°C° 0 mm 1 m/s 754 mmHg 69%
    22:00 +4°C° 0 mm 1 m/s 754 mmHg 71%
    23:00 +4°C° 0 mm 1 m/s 754 mmHg 73%

    Demain, 24 Septembre, Mardi

    Heure Température Précipitation Vent Pression Humidité
    00:00 +2°C° 0 mm 0 m/s 754 mmHg 74%
    01:00 +2°C° 0 mm 0 m/s 754 mmHg 76%
    02:00 +2°C° 0 mm 0 m/s 754 mmHg 77%
    03:00 +2°C° 0 mm 0 m/s 754 mmHg 78%
    04:00 +1°C° 0 mm 0 m/s 754 mmHg 78%
    05:00 +1°C° 0 mm 0 m/s 754 mmHg 79%
    06:00 +3°C° 0 mm 0 m/s 754 mmHg 73%
    07:00 +4°C° 0 mm 0 m/s 754 mmHg 68%
    08:00 +6°C° 0 mm 0 m/s 754 mmHg 62%
    09:00 +7°C° 0 mm 0 m/s 754 mmHg 57%
    10:00 +10°C° 0 mm 1 m/s 754 mmHg 52%
    11:00 +11°C° 0 mm 1 m/s 754 mmHg 47%
    12:00 +12°C° 0 mm 1 m/s 753 mmHg 45%
    13:00 +11°C° 0 mm 0 m/s 753 mmHg 43%
    14:00 +12°C° 0 mm 0 m/s 753 mmHg 40%
    15:00 +11°C° 0 mm 0 m/s 753 mmHg 44%
    16:00 +10°C° 0 mm 0 m/s 752 mmHg 48%
    17:00 +9°C° 0 mm 0 m/s 752 mmHg 52%
    18:00 +9°C° 0 mm 1 m/s 752 mmHg 56%
    19:00 +7°C° 0 mm 1 m/s 752 mmHg 59%
    20:00 +6°C° 0 mm 1 m/s 752 mmHg 63%
    21:00 +4°C° 0 mm 2 m/s 752 mmHg 65%
    22:00 +4°C° 0 mm 2 m/s 752 mmHg 67%
    23:00 +3°C° 0 mm 2 m/s 753 mmHg 69%

    Après-demain, 25 Septembre, Mercredi

    Heure Température Précipitation Vent Pression Humidité
    00:00 +3°C° 0 mm 2 m/s 752 mmHg 71%
    01:00 +3°C° 0 mm 2 m/s 752 mmHg 73%
    02:00 +3°C° 0 mm 2 m/s 752 mmHg 75%
    03:00 +2°C° 0 mm 2 m/s 752 mmHg 76%
    04:00 +2°C° 0 mm 2 m/s 752 mmHg 77%
    05:00 +2°C° 0 mm 2 m/s 752 mmHg 78%
    06:00 +3°C° 0 mm 2 m/s 752 mmHg 72%
    07:00 +3°C° 0 mm 3 m/s 752 mmHg 67%
    08:00 +5°C° 0 mm 3 m/s 752 mmHg 62%
    09:00 +8°C° 0 mm 3 m/s 752 mmHg 55%
    10:00 +10°C° 0 mm 4 m/s 752 mmHg 49%
    11:00 +12°C° 0 mm 4 m/s 752 mmHg 42%
    12:00 +12°C° 0 mm 4 m/s 751 mmHg 41%
    13:00 +13°C° 0 mm 4 m/s 751 mmHg 41%
    14:00 +14°C° 0 mm 4 m/s 750 mmHg 40%
    15:00 +13°C° 0 mm 4 m/s 750 mmHg 44%
    16:00 +12°C° 0 mm 3 m/s 749 mmHg 48%
    17:00 +11°C° 0 mm 3 m/s 749 mmHg 52%
    18:00 +10°C° 0 mm 3 m/s 749 mmHg 53%
    19:00 +10°C° 0 mm 3 m/s 749 mmHg 54%
    20:00 +9°C° 0 mm 3 m/s 749 mmHg 55%
    21:00 +9°C° 0 mm 3 m/s 749 mmHg 56%
    22:00 +9°C° 0 mm 3 m/s 749 mmHg 57%
    23:00 +9°C° 0 mm 3 m/s 749 mmHg 58%

    26 Septembre, Jeudi

    Heure Température Précipitation Vent Pression Humidité
    00:00 +8°C° 0.5 mm 3 m/s 749 mmHg 64%
    01:00 +8°C° 0.5 mm 3 m/s 748 mmHg 70%
    02:00 +8°C° 0.5 mm 3 m/s 748 mmHg 76%
    03:00 +8°C° 0.5 mm 3 m/s 748 mmHg 79%
    04:00 +8°C° 0.5 mm 3 m/s 748 mmHg 82%
    05:00 +8°C° 0.5 mm 3 m/s 748 mmHg 85%
    06:00 +8°C° 0.4 mm 3 m/s 748 mmHg 84%
    07:00 +9°C° 0.4 mm 3 m/s 748 mmHg 83%
    08:00 +10°C° 0.4 mm 3 m/s 748 mmHg 82%
    09:00 +11°C° 0.1 mm 3 m/s 748 mmHg 81%
    10:00 +12°C° 0.1 mm 4 m/s 748 mmHg 80%
    11:00 +13°C° 0.1 mm 4 m/s 749 mmHg 79%
    12:00 +14°C° 0.2 mm 4 m/s 748 mmHg 81%
    13:00 +14°C° 0.2 mm 3 m/s 748 mmHg 82%
    14:00 +16°C° 0.2 mm 3 m/s 748 mmHg 83%
    15:00 +14°C° 0.4 mm 3 m/s 748 mmHg 86%
    16:00 +14°C° 0.4 mm 3 m/s 748 mmHg 88%
    17:00 +13°C° 0.4 mm 3 m/s 748 mmHg 91%
    18:00 +13°C° 0 mm 3 m/s 748 mmHg 92%
    19:00 +12°C° 0 mm 3 m/s 748 mmHg 94%
    20:00 +11°C° 0 mm 3 m/s 748 mmHg 95%
    21:00 +11°C° 0 mm 3 m/s 748 mmHg 95%
    22:00 +12°C° 0 mm 2 m/s 749 mmHg 95%
    23:00 +12°C° 0 mm 2 m/s 749 mmHg 95%

    27 Septembre, Vendredi

    Heure Température Précipitation Vent Pression Humidité
    00:00 +12°C° 0 mm 2 m/s 749 mmHg 95%
    01:00 +12°C° 0 mm 2 m/s 749 mmHg 95%
    02:00 +12°C° 0 mm 2 m/s 749 mmHg 95%
    03:00 +12°C° 0 mm 1 m/s 749 mmHg 96%
    04:00 +11°C° 0 mm 1 m/s 749 mmHg 96%
    05:00 +11°C° 0 mm 1 m/s 749 mmHg 96%
    06:00 +12°C° 0 mm 1 m/s 749 mmHg 94%
    07:00 +12°C° 0 mm 1 m/s 749 mmHg 93%
    08:00 +12°C° 0 mm 1 m/s 750 mmHg 91%
    09:00 +13°C° 0 mm 1 m/s 750 mmHg 88%
    10:00 +14°C° 0 mm 1 m/s 750 mmHg 85%
    11:00 +14°C° 0 mm 1 m/s 751 mmHg 82%
    12:00 +15°C° 0 mm 1 m/s 751 mmHg 80%
    13:00 +15°C° 0 mm 1 m/s 750 mmHg 78%
    14:00 +15°C° 0 mm 1 m/s 750 mmHg 77%
    15:00 +15°C° 0 mm 1 m/s 750 mmHg 79%
    16:00 +15°C° 0 mm 1 m/s 751 mmHg 80%
    17:00 +14°C° 0 mm 1 m/s 751 mmHg 82%
    18:00 +14°C° 0 mm 1 m/s 751 mmHg 83%
    19:00 +14°C° 0 mm 1 m/s 751 mmHg 83%
    20:00 +13°C° 0 mm 1 m/s 751 mmHg 83%
    21:00 +13°C° 0 mm 1 m/s 752 mmHg 83%
    22:00 +13°C° 0 mm 1 m/s 752 mmHg 83%
    23:00 +13°C° 0 mm 2 m/s 752 mmHg 83%

    28 Septembre, Samedi

    Heure Température Précipitation Vent Pression Humidité
    00:00 +12°C° 0 mm 1 m/s 752 mmHg 85%
    01:00 +11°C° 0 mm 1 m/s 752 mmHg 86%
    02:00 +11°C° 0 mm 1 m/s 752 mmHg 88%
    03:00 +11°C° 0 mm 1 m/s 752 mmHg 86%
    04:00 +10°C° 0 mm 2 m/s 752 mmHg 85%
    05:00 +10°C° 0 mm 2 m/s 752 mmHg 84%
    06:00 +12°C° 0 mm 2 m/s 752 mmHg 82%
    07:00 +12°C° 0 mm 2 m/s 752 mmHg 81%
    08:00 +12°C° 0 mm 3 m/s 752 mmHg 79%
    09:00 +14°C° 0 mm 3 m/s 752 mmHg 74%
    10:00 +16°C° 0 mm 3 m/s 752 mmHg 69%
    11:00 +18°C° 0 mm 3 m/s 752 mmHg 64%
    12:00 +18°C° 0 mm 3 m/s 752 mmHg 62%
    13:00 +19°C° 0 mm 4 m/s 751 mmHg 61%
    14:00 +19°C° 0 mm 4 m/s 751 mmHg 59%
    15:00 +19°C° 0 mm 3 m/s 751 mmHg 63%
    16:00 +18°C° 0 mm 3 m/s 750 mmHg 66%
    17:00 +17°C° 0 mm 2 m/s 750 mmHg 70%
    18:00 +17°C° 0 mm 3 m/s 750 mmHg 72%
    19:00 +16°C° 0 mm 3 m/s 750 mmHg 74%
    20:00 +14°C° 0 mm 3 m/s 750 mmHg 76%
    21:00 +14°C° 0 mm 3 m/s 750 mmHg 77%
    22:00 +14°C° 0 mm 4 m/s 749 mmHg 78%
    23:00 +14°C° 0 mm 4 m/s 749 mmHg 79%
    Voir plus